Baker City, OR

3:59 PM PST on February 23, 2017 (GMT -0800)
Baker City Municipal

Weather History for KBKE - August, 2014

Change the Weather History Date:

Tuesday, August 26, 2014

  Actual Average Record
Temperature  
Mean Temperature 62 °F 62 °F  
Max Temperature 82 °F 82 °F 99 °F (2001)
Min Temperature 41 °F 43 °F 29 °F (1992)
Degree Days  
Heating Degree Days 3 4  
Month to date heating degree days 46 58  
Since 1 June heating degree days 292 354  
Since 1 July heating degree days 59 128  
Cooling Degree Days 0 1  
Month to date cooling degree days 68 61  
Year to date cooling degree days 233 154  
Since 1 June cooling degree days 233 152  
Growing Degree Days 12 (Base 50)    
Moisture  
Dew Point 43 °F    
Average Humidity 59    
Maximum Humidity 100    
Minimum Humidity 17    
Precipitation  
Precipitation 0.00 in 0.02 in 0.44 in (1953)
Month to date precipitation 0.51 0.58  
Year to date precipitation 5.43 6.94  
Sea Level Pressure  
Sea Level Pressure 30.08 in    
Wind  
Wind Speed 3 mph (West)    
Max Wind Speed 9 mph    
Max Gust Speed 13 mph    
Visibility 10 miles    
Events      
T = Trace of Precipitation, MM = Missing Value Source: NWS Daily Summary

Daily Weather History Graph

Daily Weather History Graph

Search for Another Location

Airport or City:

Trip Planner

Search our weather history database for the weather conditions in past years. The results will help you decide how hot, cold, wet, or windy it might be!

Date:

Astronomy

Aug. 26, 2014 Rise Set
Actual Time 6:06 AM PDT 7:38 PM PDT
Civil Twilight 5:35 AM PDT 8:09 PM PDT
Nautical Twilight 4:58 AM PDT 8:46 PM PDT
Astronomical Twilight 4:18 AM PDT 9:26 PM PDT
Moon 7:15 AM PDT (8/26) 7:56 PM PDT (8/26)
Length of Visible Light 14h 33m
Length of Day
13h 32m
New Moon, 1% of the Moon is Illuminated
Aug 26
New Moon
Sep 2
First Quarter
Sep 8
Full
Sep 15
Last Quarter
Sep 23
New

Hourly Weather History & Observations

Time (PDT) Temp. Dew Point Humidity Pressure Visibility Wind Dir Wind Speed Gust Speed Precip Events Conditions
12:53 AM 50.0 °F 43.0 °F 77% 30.05 in 10.0 mi South 4.6 mph - N/A   Unknown
1:53 AM 48.2 °F 44.6 °F 87% 30.10 in 10.0 mi SW 3.5 mph - N/A   Clear
2:53 AM 46.0 °F 43.0 °F 89% 30.06 in 10.0 mi Calm Calm - N/A   Clear
3:53 AM 43.0 °F 42.1 °F 97% 30.08 in 10.0 mi Calm Calm - N/A   Clear
4:53 AM 42.1 °F 39.9 °F 92% 30.08 in 10.0 mi Calm Calm - N/A   Clear
5:53 AM 43.0 °F 42.1 °F 97% 30.10 in 10.0 mi Calm Calm - N/A   Clear
6:53 AM 44.1 °F 42.1 °F 93% 30.12 in 10.0 mi Calm Calm - N/A   Clear
7:53 AM 53.1 °F 45.0 °F 74% 30.13 in 10.0 mi Calm Calm - N/A   Clear
8:53 AM 59.0 °F 46.0 °F 62% 30.14 in 10.0 mi Calm Calm - N/A   Clear
9:53 AM 66.0 °F 45.0 °F 47% 30.13 in 10.0 mi Calm Calm - N/A   Clear
10:53 AM 71.1 °F 46.0 °F 41% 30.13 in 10.0 mi Calm Calm - N/A   Clear
11:53 AM 73.9 °F 45.0 °F 35% 30.11 in 10.0 mi North 3.5 mph - N/A   Clear
12:53 PM 79.0 °F 43.0 °F 28% 30.08 in 10.0 mi North 5.8 mph - N/A   Clear
1:53 PM 80.6 °F 44.6 °F 28% 30.12 in 10.0 mi WNW 5.8 mph - N/A   Clear
2:53 PM 80.1 °F 39.9 °F 24% 30.05 in 10.0 mi SW 5.8 mph - N/A   Clear
3:53 PM 82.0 °F 39.0 °F 22% 30.04 in 10.0 mi NNW 4.6 mph - N/A   Clear
4:53 PM 82.0 °F 34.0 °F 18% 30.02 in 10.0 mi NW 4.6 mph - N/A   Clear
5:53 PM 80.1 °F 45.0 °F 29% 30.01 in 10.0 mi NW 6.9 mph - N/A   Clear
6:53 PM 73.4 °F 44.6 °F 36% 30.06 in 10.0 mi NW 6.9 mph - N/A   Clear
7:53 PM 64.9 °F 46.9 °F 52% 30.04 in 10.0 mi WSW 8.1 mph - N/A   Clear
8:53 PM 57.0 °F 46.9 °F 69% 30.06 in 10.0 mi Calm Calm - N/A   Clear
9:53 PM 55.0 °F 43.0 °F 64% 30.07 in 10.0 mi Calm Calm - N/A   Clear
10:53 PM 54.0 °F 44.1 °F 69% 30.06 in 10.0 mi South 4.6 mph - N/A   Clear
11:53 PM 53.1 °F 44.1 °F 71% 30.06 in 10.0 mi South 4.6 mph - N/A   Clear